Wind_Speed
8 5 6 6 6 6 11 3 1 6 6 5 12 2 3 12 8 5 18 14 19 18 18 20 16 13 11 8 7 5 4 5 6 7 8 10 12 11 13 14 14 13 12 12 13 13 14 13 13
1 7 5 8 7 10 8 5 7 8 10 9 8 4 4 6 6 16 17 18 20 19 18 18 17 12 10 9 6 6 7 9 8 9 9 10 12 11 12 13 13 8 10 11 11 12 12 12 13
7 6 9 5 9 13 2 5 8 9 12 13 7 1 2 5 10 19 16 22 20 18 17 15 16 13 11 8 6 8 8 9 9 10 10 11 11 11 11 7 5 6 8 9 10 11 11 12 13
2 4 8 7 13 14 4 5 8 14 9 9 6 7 7 3 17 13 22 22 20 18 18 18 15 13 10 7 8 10 9 8 9 10 11 10 9 9 6 5 5 7 8 9 10 11 11 13 12
6 7 9 11 17 9 4 2 13 14 12 14 11 7 6 12 11 20 22 21 20 18 18 19 16 12 9 8 9 9 8 8 9 9 9 8 8 6 5 5 7 8 8 9 10 10 10 10 11
11 7 10 14 16 12 5 6 14 16 13 13 10 13 8 12 15 21 21 20 20 18 18 19 16 13 10 10 9 9 8 8 8 7 7 7 6 6 6 7 8 8 9 9 9 9 9 10 11
14 11 14 15 17 13 10 8 15 16 13 12 7 12 8 15 19 21 20 20 20 19 19 17 16 14 13 12 10 9 7 9 7 6 5 5 6 6 6 7 9 9 10 9 9 9 9 9 10
17 15 19 19 14 15 8 13 10 15 12 9 11 6 8 21 27 22 21 20 20 23 16 16 14 14 14 13 11 8 7 7 6 4 4 4 5 5 7 7 9 9 9 9 9 9 9 9 9
15 13 15 20 17 13 10 13 10 8 11 11 10 1 8 29 30 24 22 21 19 19 19 15 15 14 14 12 10 9 8 7 5 4 4 7 4 5 6 7 7 8 8 8 8 8 8 8 8
14 12 20 15 15 12 14 17 17 9 14 13 12 6 20 31 33 28 25 24 21 20 19 17 16 16 14 11 11 8 7 6 4 4 4 4 5 4 4 7 8 9 10 10 10 11 11 7 7
13 19 14 18 13 11 12 18 18 14 14 17 20 19 23 32 30 28 24 22 21 20 19 18 17 17 15 12 11 9 7 7 7 6 5 6 4 4 5 5 7 7 10 7 7 7 7 10 8
18 24 27 20 8 7 12 17 17 20 6 17 17 22 26 32 30 29 25 23 22 21 19 19 17 17 15 12 11 9 8 8 7 6 7 5 3 3 3 2 4 6 6 6 6 6 5 6 7
22 18 24 16 10 10 10 18 16 22 3 9 19 25 28 29 27 24 23 21 21 21 20 19 18 17 15 13 11 10 10 10 8 8 7 4 2 1 3 5 4 8 9 7 4 2 3 6 6
11 30 17 18 16 8 9 15 15 18 9 15 22 25 26 28 27 24 24 23 23 21 21 20 20 18 16 13 11 12 12 11 10 7 6 3 2 2 5 7 8 12 12 8 4 2 5 5 3
8 11 19 15 16 9 14 15 14 17 15 19 21 22 24 26 26 26 25 24 24 23 22 21 20 18 16 14 14 14 13 11 9 7 5 3 3 6 7 10 12 12 10 6 3 2 1 2 1
4 5 13 16 11 8 14 18 22 18 21 20 21 21 23 25 26 24 24 23 23 21 22 22 21 20 18 16 16 15 14 12 10 8 7 6 6 7 9 11 12 11 7 4 3 2 2 4 1
11 12 23 17 15 7 15 14 17 22 22 21 22 22 23 25 25 24 23 23 23 22 22 22 23 22 21 19 17 15 14 14 12 10 9 8 8 7 8 9 11 9 4 2 2 2 1 2 1
16 18 17 21 14 13 16 16 15 23 23 24 23 22 24 26 28 26 24 24 23 23 22 23 24 23 23 22 20 19 17 17 14 13 11 11 9 8 9 9 8 4 2 1 2 3 2 2 0
21 21 19 27 11 17 17 19 13 17 22 24 24 24 24 26 25 25 25 25 24 24 24 24 25 25 25 26 25 22 21 19 17 14 11 9 8 9 9 8 5 3 3 2 2 3 2 1 2
21 20 16 7 7 12 18 19 19 12 21 28 28 26 25 24 25 27 27 26 27 27 26 26 25 26 27 27 25 24 25 21 20 17 13 12 9 9 10 8 5 4 4 4 4 4 4 4 3
8 20 19 12 4 2 5 15 19 16 17 22 26 27 27 28 29 28 28 29 29 30 31 29 27 27 28 26 26 27 25 25 22 19 15 12 11 11 11 8 6 6 6 6 5 4 4 4 2
17 10 12 14 15 13 9 10 21 21 18 18 26 26 29 29 29 29 28 29 32 33 31 31 29 28 29 28 31 29 27 25 24 19 16 14 13 13 12 9 8 9 8 7 4 4 4 3 3
5 7 5 3 14 7 1 6 17 22 24 23 24 30 29 30 32 31 31 33 32 32 34 32 29 29 30 32 33 31 29 28 27 20 18 16 14 14 12 11 10 11 8 7 5 4 4 4 3
7 12 11 5 2 7 13 13 16 22 23 23 24 30 32 32 30 30 30 31 32 31 34 34 32 32 32 32 35 33 32 31 27 22 20 16 16 14 13 13 12 12 9 7 6 5 4 5 4
6 12 4 4 3 3 20 15 15 13 19 21 22 30 31 31 31 30 30 33 32 35 36 35 34 32 33 35 35 34 34 30 28 23 19 17 18 15 15 15 14 13 10 8 7 6 6 5 5
12 10 4 6 6 8 3 12 10 20 18 18 20 24 32 30 31 32 33 34 36 38 36 35 34 33 33 35 33 33 34 28 26 22 18 16 17 16 18 16 16 13 11 9 9 8 7 6 5
5 7 1 2 1 5 8 6 7 8 9 11 14 13 15 27 29 29 28 30 31 35 34 33 32 31 32 31 32 35 28 27 26 20 19 20 19 19 19 17 18 14 13 11 10 9 8 7 6
3 4 3 2 6 6 8 10 9 10 16 16 15 19 16 17 19 20 26 28 28 29 29 29 29 30 29 29 31 27 25 27 26 20 22 21 20 21 20 19 18 15 14 12 11 10 9 8 6
3 3 5 2 3 3 3 4 5 14 14 15 14 19 17 16 15 20 21 23 25 25 27 28 28 28 28 27 24 24 27 24 23 23 23 21 22 21 20 19 17 16 14 13 12 12 10 9 8
8 7 11 3 4 2 2 2 5 5 6 5 5 13 15 15 15 15 17 19 21 23 25 26 26 26 25 25 24 26 26 26 25 25 24 24 23 22 20 20 19 17 15 15 15 13 11 11 9
Wind_Direction
303 200 159 226 237 238 250 199 36 157 152 117 140 182 57 24 10 68 141 138 143 143 149 150 143 142 137 127 110 96 93 104 108 103 102 98 87 78 73 74 74 68 52 51 53 51 50 49 46
151 169 193 263 247 215 225 155 191 168 124 153 133 141 186 83 74 131 142 145 144 145 146 155 153 150 141 133 116 103 105 106 107 103 105 111 105 87 78 70 69 71 37 42 42 44 42 44 44
165 193 255 223 234 250 171 157 183 120 144 153 147 15 69 89 122 137 153 147 145 144 145 157 154 150 143 128 112 113 116 105 107 104 102 104 106 100 97 98 79 49 40 36 34 36 35 35 34
115 235 260 246 229 244 299 154 142 149 163 182 170 136 97 90 142 147 147 149 145 154 155 167 154 156 150 136 129 128 120 104 105 101 96 97 100 102 101 77 55 40 33 28 29 29 29 33 23
239 259 250 232 244 234 245 239 173 176 169 182 190 133 102 129 141 148 149 151 151 145 165 157 164 166 160 144 140 139 131 119 110 105 99 93 89 87 77 56 42 34 30 28 27 28 27 28 27
233 244 242 235 230 218 225 206 184 193 174 172 187 139 129 158 159 150 153 153 154 159 158 163 165 167 162 150 144 140 133 125 121 108 93 80 76 71 60 45 39 37 35 34 33 35 39 39 34
246 241 244 246 238 212 217 196 198 194 184 176 183 170 133 162 171 153 155 156 155 158 162 168 171 164 159 154 148 152 137 121 115 108 93 74 63 56 50 53 51 49 46 43 41 37 32 29 26
243 251 258 246 245 227 172 176 198 196 185 157 175 188 171 174 160 159 158 160 163 160 159 160 165 162 159 165 155 153 141 134 135 124 98 67 56 57 60 52 46 44 39 33 28 25 21 18 19
256 253 241 236 227 239 158 188 188 184 167 182 190 172 144 170 155 162 162 164 167 169 160 166 167 158 172 177 162 158 156 151 145 127 104 74 66 53 42 48 36 27 21 14 6 2 4 4 2
219 226 242 243 245 243 193 202 175 178 181 186 171 133 151 166 165 167 169 169 171 172 169 172 168 163 168 167 166 162 161 155 132 114 96 111 119 104 59 28 21 16 9 6 3 2 1 348 7
240 236 237 257 253 262 214 210 183 200 199 201 189 164 163 168 168 170 172 175 172 171 172 173 172 170 170 169 163 170 170 170 168 160 138 142 107 55 41 16 8 14 4 356 353 349 347 329 324
240 236 245 257 252 249 225 206 199 207 195 207 190 176 173 172 175 177 174 177 174 175 177 174 173 172 171 172 169 170 173 175 161 146 143 134 109 51 46 11 2 351 346 345 342 335 14 307 344
229 245 229 240 239 237 243 221 206 209 156 169 166 169 175 177 179 179 179 180 177 179 180 177 176 176 177 173 175 174 178 165 160 157 150 154 168 12 346 335 329 324 324 330 329 320 307 310 352
232 237 252 236 229 221 216 226 207 213 169 162 162 171 178 180 180 178 182 184 183 181 183 183 182 179 181 177 179 174 167 171 163 174 177 185 222 291 321 317 322 333 336 333 345 343 253 323 47
274 228 243 231 216 218 212 211 222 204 172 172 174 175 180 185 185 185 185 187 186 187 184 187 185 183 184 181 185 178 180 180 184 196 209 239 283 310 313 328 334 338 336 341 13 250 5 92 118
201 244 216 209 191 207 196 215 222 194 179 182 182 180 183 187 190 190 189 190 188 188 188 187 189 190 190 188 189 189 195 195 207 221 240 256 276 295 309 326 337 345 357 30 81 245 76 116 193
198 206 209 232 203 180 198 225 194 181 190 187 187 184 185 186 192 195 193 190 191 188 188 189 195 198 199 196 195 196 199 207 220 230 244 253 266 280 300 320 334 344 357 43 93 212 90 159 223
189 212 199 205 195 207 197 228 171 182 193 196 191 188 187 188 191 192 192 191 192 190 191 194 201 203 204 204 201 208 209 217 225 238 248 255 264 290 304 313 326 329 321 278 161 234 218 271 56
200 202 201 204 178 190 201 218 190 197 202 206 192 195 191 193 189 189 190 192 193 193 193 195 201 202 204 206 209 215 217 223 229 236 242 260 285 283 288 293 298 279 265 233 223 270 279 151 149
198 200 223 160 167 211 202 216 226 201 211 206 204 198 196 192 187 189 192 193 195 197 197 199 201 202 208 214 215 218 224 225 232 233 241 256 272 272 270 269 272 259 246 240 244 231 202 251 223
200 201 207 200 149 251 196 234 220 210 224 222 220 212 202 196 190 191 193 196 199 202 203 203 203 205 213 215 215 222 225 226 234 234 241 252 259 263 260 256 254 245 235 239 240 238 226 239 217
211 209 204 217 173 205 223 234 214 212 210 212 211 216 209 201 199 198 197 199 204 208 210 210 208 208 218 216 224 229 232 233 236 240 244 241 252 253 246 245 242 233 230 241 247 240 221 207 197
202 140 160 280 185 143 279 249 237 197 210 208 208 211 212 208 203 202 202 207 207 210 212 215 212 212 221 221 230 231 230 232 239 243 241 238 242 244 238 239 230 231 232 240 243 232 207 196 196
144 97 57 44 22 200 185 198 227 230 213 210 207 213 210 209 208 207 207 210 209 212 212 216 214 217 221 222 230 230 232 238 240 238 237 239 238 236 233 234 231 227 231 238 235 214 200 201 213
128 133 117 187 189 238 180 204 229 212 202 220 209 207 210 207 205 204 204 208 208 213 217 218 218 219 221 224 228 228 234 237 240 234 232 237 233 230 234 232 226 225 228 229 217 205 207 218 235
163 157 174 165 186 164 232 219 223 235 258 214 216 222 214 205 205 203 204 207 213 217 220 221 221 222 223 228 226 227 234 233 228 218 239 228 232 228 231 230 224 221 226 224 213 209 215 229 246
172 221 82 31 162 172 196 227 282 233 242 186 213 217 224 208 200 198 200 209 212 217 220 221 220 220 224 226 222 228 227 225 221 230 228 233 229 231 226 222 221 218 223 218 217 220 226 236 254
214 150 174 213 183 221 196 232 244 194 211 211 203 207 209 206 198 200 203 206 213 218 218 216 216 218 221 219 224 222 219 216 220 223 232 231 233 228 224 220 218 219 222 218 221 226 234 243 260
117 167 233 259 293 284 238 232 7 204 212 207 210 204 187 183 193 202 202 206 212 215 214 212 209 211 211 212 209 205 210 215 223 227 230 231 231 226 222 219 218 223 222 221 225 232 237 246 257
223 212 203 212 187 288 27 291 341 35 39 16 75 186 177 176 184 188 191 199 202 205 203 202 202 204 203 202 200 203 209 216 220 225 227 228 229 223 219 217 218 223 226 226 230 236 241 252 260
Height
1521 1523 1528 1529 1526 1511 1504 1501 1496 1503 1505 1509 1511 1514 1512 1517 1518 1528 1536 1538 1540 1544 1545 1548 1550 1552 1554 1556 1557 1557 1557 1558 1558 1559 1560 1560 1561 1561 1561 1561 1561 1562 1561 1560 1560 1560 1560 1559 1559
1523 1526 1529 1523 1519 1510 1500 1493 1502 1502 1504 1511 1515 1517 1517 1523 1527 1530 1534 1538 1541 1544 1546 1549 1551 1554 1555 1557 1558 1558 1558 1559 1560 1560 1561 1562 1563 1564 1564 1564 1565 1564 1564 1563 1563 1562 1562 1561 1561
1524 1528 1528 1517 1508 1504 1501 1496 1496 1504 1509 1512 1515 1518 1519 1526 1529 1533 1535 1538 1542 1545 1550 1550 1552 1555 1556 1558 1559 1560 1560 1561 1561 1562 1563 1564 1565 1566 1567 1567 1567 1566 1566 1565 1565 1564 1563 1563 1562
1527 1530 1526 1516 1506 1497 1493 1496 1497 1507 1512 1512 1512 1517 1524 1528 1530 1532 1535 1539 1543 1545 1549 1551 1553 1556 1557 1559 1560 1562 1562 1563 1563 1564 1565 1566 1566 1567 1568 1568 1568 1568 1567 1567 1566 1565 1564 1564 1563
1528 1526 1521 1510 1502 1493 1496 1499 1501 1506 1508 1511 1513 1518 1526 1530 1531 1532 1536 1540 1544 1546 1548 1551 1554 1556 1558 1560 1561 1563 1564 1564 1565 1566 1567 1568 1568 1569 1569 1569 1569 1569 1569 1568 1567 1566 1565 1565 1564
1528 1521 1516 1511 1500 1492 1499 1501 1502 1504 1505 1510 1514 1517 1526 1529 1530 1533 1537 1541 1545 1546 1549 1551 1554 1556 1559 1561 1563 1564 1565 1566 1567 1568 1569 1569 1569 1570 1570 1570 1570 1570 1569 1569 1568 1567 1567 1566 1566
1524 1516 1513 1503 1498 1492 1496 1501 1501 1502 1505 1509 1510 1515 1525 1527 1528 1534 1538 1542 1546 1547 1549 1552 1554 1557 1559 1561 1563 1565 1566 1567 1569 1569 1570 1570 1570 1571 1571 1571 1571 1571 1570 1570 1569 1569 1568 1568 1567
1523 1519 1511 1500 1497 1493 1494 1500 1501 1503 1506 1509 1513 1512 1521 1524 1527 1535 1539 1542 1545 1546 1550 1552 1555 1557 1559 1561 1564 1566 1567 1568 1569 1570 1571 1571 1571 1572 1572 1572 1573 1572 1572 1571 1571 1570 1569 1569 1568
1522 1517 1508 1497 1496 1490 1496 1499 1502 1504 1506 1510 1512 1514 1515 1518 1526 1533 1537 1542 1545 1546 1549 1554 1556 1559 1560 1562 1564 1566 1568 1569 1570 1571 1571 1572 1575 1574 1574 1574 1574 1573 1573 1572 1572 1571 1570 1569 1568
1517 1510 1502 1493 1489 1490 1495 1497 1500 1505 1506 1509 1512 1515 1515 1517 1523 1530 1534 1539 1543 1546 1549 1553 1556 1559 1561 1563 1564 1566 1568 1569 1570 1572 1572 1575 1575 1575 1575 1575 1574 1574 1574 1573 1573 1572 1571 1570 1569
1510 1505 1499 1494 1495 1493 1492 1496 1499 1500 1502 1503 1508 1513 1514 1518 1522 1528 1534 1539 1542 1546 1549 1552 1555 1558 1561 1563 1564 1566 1568 1569 1571 1572 1574 1574 1576 1576 1576 1577 1577 1576 1575 1575 1574 1573 1571 1569 1568
1508 1501 1498 1495 1498 1496 1492 1493 1495 1497 1498 1500 1505 1510 1511 1516 1521 1525 1533 1537 1541 1544 1547 1550 1554 1556 1560 1562 1564 1566 1568 1569 1571 1572 1573 1575 1576 1576 1577 1577 1576 1575 1575 1574 1573 1571 1570 1567 1566
1502 1497 1496 1497 1497 1495 1493 1492 1492 1494 1497 1499 1502 1507 1510 1515 1521 1526 1533 1537 1540 1543 1546 1549 1552 1555 1558 1561 1563 1565 1567 1569 1571 1572 1573 1574 1575 1575 1575 1575 1575 1573 1571 1571 1571 1569 1568 1566 1566
1501 1498 1495 1495 1494 1493 1493 1491 1492 1491 1495 1499 1501 1505 1509 1515 1519 1525 1530 1534 1538 1541 1544 1547 1550 1553 1556 1559 1562 1564 1566 1568 1570 1572 1572 1573 1574 1574 1574 1573 1573 1571 1569 1569 1568 1568 1566 1565 1565
1496 1499 1495 1491 1488 1488 1492 1489 1490 1488 1493 1498 1501 1504 1509 1514 1519 1522 1527 1532 1535 1538 1542 1546 1549 1553 1555 1558 1560 1563 1565 1568 1569 1570 1571 1572 1572 1572 1572 1571 1571 1569 1568 1567 1567 1566 1565 1565 1565
1498 1499 1500 1482 1485 1486 1488 1485 1482 1486 1490 1495 1499 1503 1507 1512 1516 1521 1525 1529 1534 1537 1540 1544 1547 1550 1554 1557 1559 1561 1563 1566 1568 1569 1570 1571 1571 1571 1571 1569 1568 1567 1567 1567 1566 1566 1566 1567 1567
1495 1494 1489 1485 1481 1483 1484 1478 1470 1482 1487 1491 1495 1499 1504 1509 1514 1519 1522 1527 1531 1535 1539 1542 1544 1548 1551 1554 1557 1560 1562 1564 1565 1567 1568 1569 1569 1569 1569 1568 1567 1567 1567 1567 1567 1567 1567 1567 1566
1483 1483 1482 1485 1479 1481 1481 1473 1464 1478 1482 1485 1491 1496 1501 1504 1508 1514 1520 1525 1529 1533 1536 1539 1541 1545 1549 1552 1555 1556 1559 1561 1563 1564 1565 1566 1567 1568 1568 1567 1567 1567 1567 1567 1566 1565 1565 1566 1567
1470 1477 1474 1474 1472 1475 1472 1473 1471 1476 1479 1482 1486 1491 1495 1500 1505 1511 1517 1521 1526 1530 1532 1535 1537 1541 1544 1547 1549 1553 1555 1558 1559 1561 1563 1564 1564 1565 1566 1566 1566 1566 1565 1566 1566 1565 1564 1563 1565
1466 1472 1468 1471 1476 1472 1468 1469 1467 1472 1476 1477 1479 1485 1491 1497 1501 1507 1511 1516 1520 1525 1528 1531 1534 1537 1540 1543 1546 1550 1552 1554 1555 1557 1560 1561 1562 1562 1564 1564 1565 1565 1565 1565 1565 1564 1564 1564 1564
1466 1466 1467 1467 1479 1474 1470 1470 1467 1468 1475 1477 1477 1480 1485 1490 1496 1501 1506 1510 1514 1519 1522 1527 1530 1533 1536 1540 1543 1545 1548 1549 1552 1554 1557 1558 1559 1560 1561 1562 1562 1563 1563 1563 1563 1563 1563 1562 1563
1466 1463 1464 1465 1475 1476 1472 1463 1451 1460 1467 1470 1472 1475 1479 1485 1491 1496 1500 1505 1508 1513 1518 1522 1526 1529 1532 1535 1537 1540 1544 1546 1548 1551 1553 1555 1556 1557 1558 1559 1559 1560 1560 1561 1562 1562 1562 1562 1562
1460 1460 1466 1473 1470 1478 1492 1486 1446 1447 1452 1459 1464 1469 1474 1479 1483 1489 1492 1497 1503 1508 1512 1516 1521 1524 1526 1530 1532 1536 1540 1542 1544 1548 1550 1551 1552 1554 1555 1555 1557 1559 1559 1559 1560 1560 1561 1561 1561
1461 1462 1476 1483 1482 1481 1481 1482 1454 1438 1438 1447 1454 1460 1465 1472 1478 1483 1487 1493 1497 1502 1506 1510 1514 1518 1521 1524 1527 1531 1533 1536 1540 1543 1546 1548 1549 1550 1551 1552 1554 1556 1557 1558 1558 1559 1560 1560 1560
1460 1461 1479 1484 1483 1464 1461 1473 1440 1425 1431 1436 1442 1451 1458 1464 1470 1475 1481 1485 1491 1493 1498 1502 1507 1511 1515 1518 1521 1525 1526 1531 1535 1538 1540 1544 1545 1545 1547 1549 1551 1552 1554 1556 1556 1556 1557 1559 1559
1456 1456 1463 1458 1458 1459 1471 1461 1438 1434 1433 1435 1437 1442 1450 1457 1462 1466 1472 1478 1482 1486 1491 1495 1501 1505 1509 1512 1515 1518 1521 1527 1530 1532 1536 1538 1541 1541 1544 1545 1548 1550 1553 1554 1554 1554 1554 1556 1557
1460 1458 1460 1454 1468 1445 1448 1438 1434 1431 1430 1434 1438 1442 1445 1449 1455 1459 1466 1471 1476 1478 1483 1488 1493 1498 1502 1507 1509 1512 1518 1522 1526 1529 1532 1534 1535 1537 1539 1542 1545 1546 1549 1550 1552 1553 1553 1553 1554
1454 1453 1462 1464 1463 1448 1420 1426 1418 1430 1427 1429 1434 1438 1442 1447 1452 1455 1459 1464 1469 1473 1478 1483 1487 1491 1495 1500 1502 1507 1513 1518 1522 1526 1529 1529 1531 1533 1536 1538 1542 1543 1546 1548 1550 1551 1551 1552 1552
1459 1462 1460 1452 1453 1434 1425 1420 1418 1413 1418 1423 1430 1435 1438 1443 1448 1452 1454 1458 1463 1468 1473 1477 1480 1484 1490 1494 1498 1504 1509 1513 1518 1521 1524 1526 1528 1529 1533 1536 1538 1541 1544 1546 1547 1549 1549 1549 1550
1446 1452 1449 1444 1456 1447 1452 1425 1425 1423 1426 1429 1429 1433 1436 1437 1444 1448 1450 1454 1458 1463 1468 1472 1476 1481 1487 1492 1495 1500 1505 1508 1512 1515 1518 1522 1525 1527 1530 1532 1534 1538 1542 1543 1545 1546 1545 1546 1546